This is the latest recevied weather packets stored in our database for station/object KF4KUL. If no packets are shown the sender has not sent any weather packets the latest 10 day(s).
| Time | Temp. | Humidity | Pressure | Rain* | Wind** | Luminosity | Snow |
|---|---|---|---|---|---|---|---|
| 1777552813 | 24.44° C | 76% | 1012.5 hPa | 0 mm | - | - | - |
| 1777551912 | 23.89° C | 78% | 1012.5 hPa | 0 mm | - | - | - |
| 1777551011 | 22.78° C | 78% | 1012.5 hPa | 0 mm | - | - | - |
| 1777550110 | 22.78° C | 81% | 1012.3 hPa | 0 mm | - | - | - |
| 1777549209 | 22.22° C | 84% | 1012.2 hPa | 0 mm | - | - | - |
| 1777548308 | 22.22° C | 84% | 1011.7 hPa | 0 mm | - | - | - |
| 1777547407 | 22.22° C | 84% | 1011.6 hPa | 0 mm | - | - | - |
| 1777546506 | 21.67° C | 84% | 1011.3 hPa | 0 mm | - | - | - |
| 1777545605 | 22.22° C | 84% | 1011.5 hPa | 0 mm | - | - | - |
| 1777544704 | 22.22° C | 85% | 1011.1 hPa | 0 mm | - | - | - |
| 1777543803 | 21.67° C | 85% | 1011.1 hPa | 0 mm | - | - | - |
| 1777542902 | 22.22° C | 85% | 1011.3 hPa | 0 mm | - | - | - |
| 1777542001 | 22.22° C | 84% | 1011.3 hPa | 0 mm | - | - | - |
| 1777541100 | 22.22° C | 84% | 1011.3 hPa | 0 mm | - | - | - |
| 1777540199 | 22.78° C | 83% | 1010.9 hPa | 0 mm | - | - | - |
| 1777539298 | 22.78° C | 82% | 1011.2 hPa | 0 mm | - | - | - |
| 1777538397 | 23.33° C | 82% | 1011.2 hPa | 0 mm | - | - | - |
| 1777537496 | 23.33° C | 82% | 1011.2 hPa | 0 mm | - | - | - |
| 1777536595 | 23.33° C | 81% | 1011.2 hPa | 0 mm | - | - | - |
| 1777535694 | 23.33° C | 81% | 1011.4 hPa | 0 mm | - | - | - |
| 1777534793 | 23.89° C | 80% | 1011.5 hPa | 0 mm | - | - | - |
| 1777533892 | 23.89° C | 80% | 1011.6 hPa | 0 mm | - | - | - |
| 1777532991 | 23.89° C | 80% | 1011.7 hPa | 0 mm | - | - | - |
| 1777532090 | 23.89° C | 80% | 1011.9 hPa | 0 mm | - | - | - |
| 1777531189 | 23.33° C | 80% | 1012.3 hPa | 0 mm | - | - | - |
* Rain latest hour (hover to see other rain measurements)
** Current wind speed in m/s (hover to see current wind gust speed)